Location: Unspecified
(0.0000°N, 0.0000°E)
Time: 19:54:21
(UTC+00:00)

Envisat - Pass Details

Date: 17 October 2021
Orbit: 764 x 766 km, 98.2° (Epoch: 24 October)

Event Time Altitude Azimuth Distance (km) Brightness Sun altitude
Rises 03:51:56 0° 38° (NE) 3,215 6.6 -28.0°
Reaches altitude 10° 03:54:44 10° 54° (NE) 2,292 6.0 -27.3°
Maximum altitude 03:58:30 21° 102° (ESE) 1,654 5.5 -26.3°
Drops below altitude 10° 04:02:16 10° 151° (SSE) 2,300 5.9 -25.4°
Sets 04:05:05 0° 166° (SSE) 3,229 6.5 -24.7°
